sat.trackr.live / text

‹ back to catalog

STARLINK-1221

NORAD 45227 · 2020-012BB

PAYLOAD ACTIVE UNKNOWN

§ Identity

Operator
Country
US
Launch date
2020-02-17
Launch site
AFETR
Launch vehicle
Mass (kg)
RCS (m²)

Purposes: comms

External: N2YO · Heavens-Above · Gunter

§ Orbital elements

Epoch: 2026-09-19T22:44:31.280928Z

Period
92.84 min
Inclination
53.0610°
Eccentricity
0.0002125
Mean motion
15.50975008 rev/d
Perigee alt
412.4 km
Apogee alt
415.3 km
Semi-major
6,792.0 km
B*
2.8036e-4
RAAN
63.7360°
Arg perigee
220.0167°
Mean anomaly
140.0685°
Rev number
36,675

§ Raw data

STARLINK-12211 45227U 20012BB  26262.94758427  .00016118  00000+0  28036-3 0  99972 45227  53.0610  63.7360 0002125 220.0167 140.0685 15.50975008366751

JSON: /api/v1/satellites/45227 · /tle

For live sub-satellite position, see the globe view (requires WebGL).

§ Visibility from observer

Set your observer location to see the next 7 days of passes ≥ 10°. The values pass through the URL so the page stays shareable.

No JS? Fill the form by hand. The geolocation button needs JavaScript.